User: anonymous   Login
Location: Unspecified
(0.0000°N, 0.0000°E)
Time: 07:29:00
(UTC+00:00)
Language:

GALILEO 12 (269) - Orbit

View from above orbital plane
View from above orbital plane
View from above satellite
View from above satellite

Ground track
Ground track

The orbit data is extracted from the following two-line orbital elements,

1 41174U 15079A   17082.18142717 -.00000006 +00000-0 +00000-0 0  9995
2 41174 054.9244 194.0989 0004164 282.8860 077.0507 01.70474103007444
Epoch (UTC): 23 March 2017 04:21:15
Eccentricity: 0.0004164
inclination: 54.9244°
perigee height: 23209 km
apogee height: 23234 km
right ascension of ascending node: 194.0989°
argument of perigee: 282.8860°
revolutions per day: 1.70474103
mean anomaly at epoch: 77.0507°
orbit number at epoch: 744

The dashed part of the orbit path shows where the satellite is in the earth's shadow,  

DLR